EW6866 Weather Reports


time (UTC)temp
C
wind
direction
speed
KPH
gust
KPH
rain 1hr
cm
rain 24hr
cm
rain mn
cm
humidity
%
barometer
mb
20260507231526 11 96 0.0 1.6 0.00 1.57 1.57 94 1009.3
20260507230005 11 82 0.0 4.8 0.00 1.57 1.57 94 1009.2
20260507224525 11 69 0.0 4.8 0.00 1.57 1.57 96 1008.9
20260507223005 11 65 0.0 6.4 0.00 1.57 1.57 96 1008.7
20260507221505 11 74 0.0 4.8 0.00 1.57 1.57 96 1008.8
20260507220005 11 75 0.0 6.4 0.03 1.57 1.57 96 1008.4
20260507214504 11 72 0.0 4.8 0.03 1.57 1.57 96 1008.0
20260507213004 11 72 0.0 4.8 0.05 1.57 1.57 96 1007.9
20260507211505 12 70 0.0 3.2 0.08 1.57 1.57 97 1008.2
20260507210004 12 59 0.0 6.4 0.08 1.55 1.55 97 1008.1
20260507204525 12 65 1.6 4.8 0.08 1.55 1.55 97 1007.7
20260507203004 12 66 0.0 3.2 0.05 1.52 1.52 97 1007.6
20260507201505 12 68 0.0 4.8 0.03 1.50 1.50 96 1007.6
20260507200025 12 68 0.0 3.2 0.03 1.47 1.47 97 1007.8
20260507194504 12 58 0.0 4.8 0.05 1.47 1.47 97 1008.0
20260507193004 12 58 0.0 4.8 0.05 1.47 1.47 97 1007.5
20260507191504 12 67 0.0 6.4 0.05 1.47 1.47 96 1007.6
20260507190006 12 60 0.0 4.8 0.03 1.45 1.45 96 1007.7
20260507184504 12 61 0.0 9.7 0.00 1.42 1.42 96 1007.9
20260507183004 12 277 0.0 4.8 0.03 1.42 1.42 96 1008.1
20260507181525 12 61 1.6 6.4 0.08 1.42 1.42 97 1008.5
20260507180005 12 59 3.2 14.5 0.15 1.42 1.42 96 1008.5
20260507174504 13 59 1.6 9.7 0.28 1.42 1.42 97 1008.6
20260507173005 13 64 1.6 8.0 0.46 1.40 1.40 97 1008.7
20260507171504 13 60 1.6 9.7 0.84 1.35 1.35 96 1009.1
20260507170026 13 61 3.2 9.7 0.86 1.27 1.27 96 1009.4
20260507164504 13 61 3.2 14.5 0.81 1.14 1.14 95 1009.2
20260507163025 14 66 3.2 6.4 0.69 0.91 0.91 96 1009.6
20260507161504 14 63 3.2 12.9 0.28 0.51 0.51 95 1009.4
20260507160005 15 67 1.6 8.0 0.18 0.41 0.41 93 1009.2
20260507154525 17 76 1.6 6.4 0.10 0.33 0.33 93 1008.7
20260507153004 20 134 0.0 1.6 0.00 0.23 0.23 97 1008.3
20260507151504 20 0 0.0 0.0 0.00 0.23 0.23 97 1008.1
20260507150005 20 0 0.0 0.0 0.00 0.23 0.23 97 1008.3
20260507144504 20 132 0.0 1.6 0.00 0.23 0.23 97 1007.9
20260507143004 20 248 0.0 3.2 0.00 0.23 0.23 97 1008.3
20260507141503 20 224 0.0 4.8 0.00 0.23 0.23 97 1008.3
20260507140004 20 158 0.0 3.2 0.00 0.23 0.23 97 1008.5
20260507134504 20 226 0.0 6.4 0.00 0.23 0.23 97 1008.6
20260507133026 20 177 0.0 4.8 0.00 0.23 0.23 97 1008.7
20260507131504 20 186 0.0 1.6 0.03 0.23 0.23 97 1008.8
20260507130025 20 143 0.0 6.4 0.05 0.23 0.23 97 1009.0
20260507124504 19 247 0.0 3.2 0.05 0.23 0.23 97 1009.2
20260507123004 19 230 0.0 6.4 0.05 0.23 0.23 97 1009.1
20260507121525 19 189 0.0 4.8 0.03 0.20 0.20 97 1009.3
20260507120005 19 174 0.0 4.8 0.00 0.18 0.18 97 1009.4
20260507114505 19 169 0.0 3.2 0.00 0.18 0.18 97 1009.5
20260507113004 19 220 0.0 6.4 0.03 0.18 0.18 97 1009.6
20260507111506 19 227 0.0 6.4 0.03 0.18 0.18 97 1009.4
20260507110005 18 148 0.0 4.8 0.03 0.18 0.18 97 1009.2
20260507104525 18 253 0.0 9.7 0.03 0.18 0.18 97 1009.2
20260507103004 18 139 0.0 3.2 0.00 0.15 0.15 97 1009.0
20260507101503 18 179 0.0 4.8 0.00 0.15 0.15 96 1009.2
20260507100025 18 146 0.0 4.8 0.00 0.15 0.15 96 1009.2
20260507094525 18 132 0.0 1.6 0.00 0.15 0.15 96 1009.0
20260507093004 18 187 0.0 3.2 0.00 0.15 0.15 96 1009.0
20260507091503 18 173 0.0 1.6 0.00 0.15 0.15 96 1009.0
20260507090004 18 142 0.0 1.6 0.00 0.15 0.15 95 1008.9
20260507084504 18 162 0.0 3.2 0.03 0.15 0.15 95 1009.1
20260507083004 18 199 0.0 4.8 0.03 0.15 0.15 95 1009.4
20260507081504 18 229 0.0 4.8 0.05 0.15 0.15 95 1009.7
20260507080004 18 127 0.0 3.2 0.08 0.15 0.15 94 1009.6
20260507074505 18 0 0.0 0.0 0.13 0.13 0.13 93 1010.3
20260507073005 18 135 0.0 1.6 0.13 0.13 0.13 92 1009.9
20260507071505 19 231 0.0 4.8 0.10 0.10 0.10 90 1009.5
20260507070010 20 241 1.6 9.7 0.08 0.08 0.08 87 1009.3
20260507064506 21 186 0.0 9.7 0.00 0.00 0.00 83 1010.0
20260507063006 21 158 0.0 4.8 0.00 0.00 0.00 81 1010.1
20260507061505 21 231 0.0 1.6 0.00 0.00 0.00 81 1010.7
20260507060005 21 164 0.0 1.6 0.00 0.00 0.00 80 1010.6
20260507054505 21 188 0.0 1.6 0.00 0.00 0.00 80 1010.6
20260507053005 21 210 0.0 1.6 0.00 0.00 0.00 79 1010.7
20260507051526 21 182 0.0 4.8 0.00 0.00 0.00 79 1010.7
20260507050006 21 170 0.0 3.2 0.00 0.00 0.00 79 1010.7
20260507044526 21 175 0.0 1.6 0.00 0.00 0.00 78 1010.7
20260507043005 21 193 0.0 6.4 0.00 0.00 0.00 77 1010.6
20260507041526 21 231 1.6 6.4 0.00 0.00 0.00 77 1010.8
20260507040006 21 177 0.0 8.0 0.00 0.00 0.00 76 1010.6
20260507034505 21 198 0.0 4.8 0.00 0.00 0.00 75 1010.8
20260507033026 21 208 0.0 3.2 0.00 0.00 0.00 74 1010.7
20260507031505 22 188 0.0 8.0 0.00 0.00 0.00 73 1010.9
20260507030005 22 227 0.0 6.4 0.00 0.00 0.00 72 1010.7
20260507024527 22 231 0.0 8.0 0.00 0.00 0.00 71 1010.7
20260507023025 22 197 0.0 4.8 0.00 0.00 0.00 70 1010.9
20260507021505 22 198 0.0 4.8 0.00 0.00 0.00 69 1010.9
20260507020005 22 206 1.6 4.8 0.00 0.00 0.00 68 1010.6
20260507014505 22 225 0.0 9.7 0.00 0.00 0.00 67 1010.9
20260507013005 22 185 0.0 4.8 0.00 0.00 0.00 66 1010.7
20260507011505 23 249 1.6 8.0 0.00 0.00 0.00 64 1010.9
20260507010005 23 184 1.6 9.7 0.00 0.00 0.00 63 1010.7
20260507004504 23 188 1.6 9.7 0.00 0.00 0.00 63 1010.7
20260507003004 24 245 1.6 8.0 0.00 0.00 0.00 64 1010.5
20260507001504 24 226 3.2 12.9 0.00 0.00 0.00 67 1010.2
20260507000005 24 257 1.6 12.9 0.00 0.00 0.00 68 1010.0
20260506234526 25 254 1.6 11.3 0.00 0.00 0.00 69 1010.1
20260506233005 25 223 1.6 12.9 0.00 0.00 0.00 70 1010.0